Weather History for Lamar, CO

Change the Weather History Date:

Monday, June 9, 2014

  Actual Average Record
Temperature  
Mean Temperature 56 °F 70 °F  
Max Temperature 67 °F 86 °F 106 °F (1922)
Min Temperature 45 °F 54 °F 43 °F (1998)
Degree Days  
Heating Degree Days 9 1  
Month to date heating degree days 9 13  
Since 1 June heating degree days 9 13  
Since 1 July heating degree days 5464 5553  
Cooling Degree Days 0 6  
Month to date cooling degree days 67 45  
Year to date cooling degree days 160 105  
Since 1 June cooling degree days 67 45  
Growing Degree Days 7 (Base 50)    
Moisture  
Dew Point 45 °F    
Average Humidity 71    
Maximum Humidity 93    
Minimum Humidity 48    
Precipitation  
Precipitation 0.00 in 0.08 in 0.57 in (1986)
Month to date precipitation 0.47 0.76  
Year to date precipitation 3.53 5.61  
Sea Level Pressure  
Sea Level Pressure 29.95 in    
Wind  
Wind Speed 18 mph (NNW)    
Max Wind Speed 37 mph    
Max Gust Speed 47 mph    
Visibility 10 miles    
Events      
T = Trace of Precipitation, MM = Missing Value Source: NWS Daily Summary

Daily Weather History Graph

Daily Weather History Graph

Search for Another Location

Airport:

Trip Planner

Search our weather history database for the weather conditions in past years. The results will help you decide how hot, cold, wet, or windy it might be!

Date:

Astronomy

Jun. 09, 2014 Rise Set
Actual Time 5:27 AM MDT 8:12 PM MDT
Civil Twilight 4:56 AM MDT 8:43 PM MDT
Nautical Twilight 4:17 AM MDT 9:23 PM MDT
Astronomical Twilight 3:32 AM MDT 10:07 PM MDT
Moon 4:38 PM MDT (6/9) 2:52 AM MDT (6/9)
Length of Visible Light 15h 47m
Length of Day
14h 45m
Waxing Gibbous, 85% of the Moon is Illuminated
Jun 9
Waxing Gibbous
Jun 12
Full
Jun 19
Last Quarter
Jun 27
New
Jul 5
First Quarter

Hourly Weather History & Observations

Time (MDT) Temp. Dew Point Humidity Pressure Visibility Wind Dir Wind Speed Gust Speed Precip Events Conditions
12:53 AM 54.0 °F 46.9 °F 77% 29.89 in 10.0 mi NNW 19.6 mph 24.2 mph N/A   Overcast
1:13 AM 54.0 °F 46.0 °F 75% 30.00 in 10.0 mi NW 18.4 mph - N/A   Overcast
1:53 AM 53.1 °F 46.0 °F 77% 29.88 in 10.0 mi NW 13.8 mph - N/A   Overcast
2:53 AM 53.1 °F 46.0 °F 77% 29.89 in 10.0 mi NW 18.4 mph - N/A   Overcast
3:48 AM 53.6 °F 46.4 °F 77% 30.01 in 10.0 mi NW 11.5 mph - N/A   Overcast
3:53 AM 53.1 °F 46.0 °F 77% 29.91 in 10.0 mi NW 11.5 mph - N/A   Overcast
4:53 AM 53.1 °F 46.0 °F 77% 29.90 in 10.0 mi NNW 16.1 mph 24.2 mph N/A   Overcast
5:31 AM 53.1 °F 45.0 °F 74% 30.00 in 10.0 mi NNW 18.4 mph - N/A   Overcast
5:53 AM 53.1 °F 44.1 °F 71% 29.94 in 10.0 mi NW 12.7 mph - N/A   Overcast
6:53 AM 54.0 °F 43.0 °F 66% 29.93 in 10.0 mi NNW 21.9 mph - N/A   Scattered Clouds
7:46 AM 54.0 °F 44.1 °F 69% 30.00 in 10.0 mi NNW 21.9 mph 34.5 mph N/A   Overcast
7:53 AM 55.0 °F 44.1 °F 67% 29.93 in 10.0 mi NNW 25.3 mph 35.7 mph N/A   Overcast
8:07 AM 54.0 °F 44.1 °F 69% 30.00 in 10.0 mi NNW 24.2 mph 34.5 mph N/A   Overcast
9:53 AM 55.0 °F 43.0 °F 64% 29.91 in 10.0 mi North 32.2 mph 44.9 mph N/A   Mostly Cloudy
10:53 AM 55.9 °F 45.0 °F 67% 29.95 in 10.0 mi North 24.2 mph 29.9 mph N/A   Mostly Cloudy
11:53 AM 57.9 °F 44.1 °F 60% 29.95 in 10.0 mi North 25.3 mph 39.1 mph N/A   Overcast
2:53 PM 64.0 °F 46.0 °F 52% 29.93 in 10.0 mi NNE 26.5 mph 38.0 mph N/A   Mostly Cloudy
3:53 PM 64.0 °F 46.0 °F 52% 29.94 in 10.0 mi NNE 25.3 mph 32.2 mph N/A   Scattered Clouds
5:53 PM 66.0 °F 46.0 °F 48% 29.92 in 10.0 mi NNE 18.4 mph - N/A   Clear
6:53 PM 64.0 °F 46.0 °F 52% 29.92 in 10.0 mi NNE 15.0 mph - N/A   Clear
7:53 PM 61.0 °F 46.9 °F 60% 29.94 in 10.0 mi NNE 9.2 mph - N/A   Clear
8:53 PM 55.9 °F 48.0 °F 75% 29.96 in 10.0 mi ENE 3.5 mph - N/A   Clear
9:53 PM 50.0 °F 46.9 °F 89% 29.99 in 10.0 mi SW 5.8 mph - N/A   Clear
10:53 PM 48.9 °F 45.0 °F 86% 29.99 in 10.0 mi South 8.1 mph - N/A   Clear
11:53 PM 46.9 °F 45.0 °F 93% 29.99 in 10.0 mi SSW 5.8 mph - N/A   Clear